STARLINK-36350, 67572

Orbit data source: Space-Track

STARLINK-36350, 67572 is a payload satellite owned by SpaceX/Seattle (US) in SSO that was launched on Sun, 25 Jan 2026 UTC via an FALCON 9 launch vehicle from the Air Force Western Test Range (AFWTR). Payload-class satellites include a variety of spacecraft equipped with specific instruments for various scientific and technological missions. These include communications satellites like Starlink; space stations such as the ISS; scientific satellites like the Hubble; Earth observation satellites from companies like Planet Labs, Umbra, and HawkEye 360; GPS; miniature CubeSats for education and research; and military/defense satellites.

Not visible in the next 10 days
Identifier
67572, 2026-016M
Orbit
SSO
Country
Flag of USUS
Related business
Manufacturer
SpaceX/Seattle
Mission
Operational spacecraft
Bus & Motor
STARLINK V2MO, Unknown motor
Mass
575 kg wet, ~530 kg dry
Launch date (UTC)
2026-01-25 (2 weeks ago)
Launch vehicle
FALCON 9
Launch site
Air Force Western Test Range (AFWTR)
Object type
Payload
Rocket body
Debris
Shape & HBR
Unknown shape, 17.7 m
Radar Cross Section
RCS unknown

Expand to show TLE details & history
Last TLE update: 10 hours ago

TLE from 10 hours ago
0 STARLINK-36350
1 67572U 26016M   26039.91670139 -.00054820  00000-0 -28687-3 0  9993
2 67572  97.2780  98.9198 0001363  77.0738 147.5702 15.80844851  3318
Epoch: 2026-02-08T22:00Z
TLE epoch observation values (Epoch: 2026-02-08T22:00:03.000Z)
Latitude
-44.47539°
Longitude
162.72542°
Altitude
346.08 km
Speed
7.699 km/s
True Right ascension
18h 07m 01s
True Declination
-44° 17' 35"
Sunlit
Object was in daylight at epoch
Visualization orbit readout
Latitude
Unknown
Longitude
Unknown
Altitude
Unknown
Speed
Unknown
Apparent Right ascension
Unknown
Apparent Declination
Unknown
Sunlit
N/A
Visualization observer readout
Local Sidereal Time
10:30:22
Azimuth
Unknown
Elevation
Unknown
Doppler factor
Unknown
Orbital elements
Apogee altitude
325.844 km
Perigee altitude
324.016 km
Semi-major axis
6,703.067 km
Eccentricity
0.00014
Inclination
97.278°
RAAN
98.9198°
Arg. of periapsis
77.0738°
True anomaly
147.57857°
Mean anomaly
147.5702°
Eccentric anomaly
147.57439°
Mean motion
3.95488 °/min
Orbital period
91.03 mins
BSTAR
-0.00028687
Loading maneuver chart data...
Computing Atmospheric mass density...
Loading historical data...
Loading historical data...
Loading historical data...
Loading historical data...
Loading historical data...
Loading historical data...
Loading historical data...

Documentation

Showing up to 5 results
|